Tracking 17560 objects as of 11-February-2016
HD Live streaming from Space Station
objects crossing your sky now

GLOBALSTAR M031

Track GLOBALSTAR M031 now!
10-day predictions
GLOBALSTAR M031 is classified as:


NORAD ID: 25946
Int'l Code: 1999-058D
Perigee: 1,615.6 km
Apogee: 1,619.2 km
Inclination: 52.0 °
Period: 118.4 minutes
Semi major axis: 7988 km
RCS: 2.5697 m2 (large)
Launch date: October 18, 1999
Source: Globalstar (GLOB)
Launch site: TYURATAM MISSILE AND SPACE COMPLEX (TTMTR)
Your satellite tracking list
Your tracking list is empty





NASA's NSSDC Master Catalog

Two Line Element Set (TLE):
1 25946U 99058D   16041.96706740 -.00000072 +00000-0 +19075-3 0  9993
2 25946 051.9954 268.9883 0002259 085.0029 021.3174 12.1593532749365
Source of the keplerian elements: AFSPC

N2YO: 881